Regional Weather Roundup
Issued by NWS

Home | Current Version | Previous Version | Graphics & Text | Print | Product List | Glossary On
Versions: 1 2 3 4 5 6 7 8 9 10 11 12 13 14 15 16 17 18 19 20 21 22 23 24 25 26 27 28 29 30 31 32 33 34 35 36 37 38 39 40 41 42 43 44 45 46 47 48 49 50
000
ASUS43 KMPX 310710
RWRMN
WEATHER ROUNDUP FOR MINNESOTA
NATIONAL WEATHER SERVICE TWIN CITIES/CHANHASSEN MN
200 AM CDT SUN AUG 31 2014


NOTE: "FAIR" INDICATES FEW OR NO CLOUDS BELOW 12,000 FEET WITH NO
SIGNIFICANT WEATHER AND/OR OBSTRUCTIONS TO VISIBILITY. N/A MEANS
CURRENT SKY AND/OR WEATHER CONDITIONS ARE NOT AVAILABLE.

MNZ060>063-068>070-310800-
   Twin Cities Metro

CITY           SKY/WX    TMP DP  RH WIND       PRES   REMARKS
TWIN CITIES    PTCLDY    64  62  93 SE6       29.90R
ST PAUL        CLEAR     63  60  90 E3        29.90R
CRYSTAL        CLEAR     65  59  81 CALM      29.88R
BLAINE         CLEAR     63  63 100 CALM      29.90R
LAKEVILLE      CLEAR     57  57 100 CALM      29.90R FOG
EDEN PRAIRIE   CLEAR     63  61  93 E3        29.88R
SOUTH ST PAUL  CLEAR     64  62  92 CALM      29.90R
LAKE ELMO      FAIR      59  59 100 CALM      29.91R
$$
MNZ001>005-007-008-013>017-022>024-027-028-310800-
   Northwest Minnesota

CITY           SKY/WX    TMP DP  RH WIND       PRES   REMARKS
BEMIDJI        CLOUDY    61  60  96 SE6       29.84F
HALLOCK        PTCLDY    57  55  94 SE7       29.76F
ROSEAU         CLOUDY    61  55  82 SE7       29.81F
WARROAD        CLOUDY    61  55  82 SE6       29.83F
THIEF RVR FALL CLOUDY    63  57  82 SE8       29.80F
CROOKSTON      MOCLDY    61  61 100 SE10      29.78F
FOSSTON        PTCLDY    57  55  94 SE7       29.81F
DETROIT LAKES  CLOUDY    63  61  94 SE10      29.81F
MOORHEAD       MOCLDY    61  61 100 SE8       29.76F
PARK RAPIDS    CLOUDY    62  61  96 SE9       29.84F
MAHNOMEN       PTSUNNY   60  59  97 SE7       29.80F
$$
MNZ006-009>011-018-025>026-310800-
   North Central Minnesota

CITY           SKY/WX    TMP DP  RH WIND       PRES   REMARKS
BAUDETTE       CLOUDY    58  55  90 VRB6      29.84S
FLAG ISLAND    CLOUDY    64  59  82 S16       29.82S
INTL FALLS     CLOUDY    55  54  96 SE3       29.87R
WASKISH        MOCLDY    61  57  88 E5        29.84F
BIG FORK       CLOUDY    63  59  88 SE6       29.88S
LONGVILLE      CLOUDY    63  63 100 SE3       29.85F
GRAND RAPIDS   CLOUDY    61  57  88 SE9       29.90R
CRANE LAKE     CLOUDY    54  54 100 S3        29.91R
ORR            CLOUDY    59  55  88 SE8       29.88R
COOK           CLOUDY    61  57  88 CALM      29.91R
WALKER         CLOUDY    62  61  96 SE7       29.85S
$$
MNZ012-019>021-037-310800-
   Northeast Minnesota

CITY           SKY/WX    TMP DP  RH WIND       PRES   REMARKS
DULUTH         CLOUDY    60  57  89 SE8       29.91R
ELY            CLOUDY    57  54  88 CALM      29.91R
HIBBING        CLOUDY    61  57  87 S5        29.92R
EVELETH        CLOUDY    59  55  88 S3        29.93R
DULUTH HARBOR  MOCLDY    63  59  88 CALM      29.92R
TWO HARBORS    CLOUDY    57  52  82 CALM      29.90R
SILVER BAY       N/A     54  54 100 CALM      29.90S FOG
GRAND MARAIS     N/A     53  51  93 CALM      29.90F
G MARAIS ARPRT FOG       45  41  87 CALM      29.93F VSB 1/2
$$
MNZ029>031-032-039>041-046>048-054>057-064-310800-
   West Central Minnesota

CITY           SKY/WX    TMP DP  RH WIND       PRES   REMARKS
FERGUS FALLS   MOCLDY    61  59  94 SE12      29.79F
WHEATON        PTCLDY    55  55 100 SE13      29.77F
MORRIS         PTCLDY    61  61 100 SE10      29.80F FOG
ALEXANDRIA     PTCLDY    60  59  96 SE7       29.85F
ELBOW LAKE     FAIR      59  58  98 SE10      29.80F
WADENA         CLOUDY    63  61  94 S6        29.84F
GLENWOOD       FOG       57  57 100 SE6       29.85F VSB 1/4
APPLETON       PTCLDY    61  57  88 SE9       29.80F
BENSON         PTCLDY    61  59  94 S9        29.82F
ORTONVILLE     PTCLDY    61  57  88 SE9       29.78F
MADISON        CLEAR     63  61  94 SE8       29.80F FOG
WILLMAR        FAIR      61  57  88 E6        29.86F FOG
$$
MNZ033>034-036-042>043-049>051-058-059-310800-
   Central Minnesota

CITY           SKY/WX    TMP DP  RH WIND       PRES   REMARKS
ST CLOUD       PTCLDY    67  62  84 SE8       29.87F
SAUK CENTRE    CLOUDY    61  59  94 SE3       29.87F
PAYNESVILLE    HVY RAIN  61  61 100 E7        29.87F
AITKIN         CLOUDY    66  59  77 SE8       29.88S
PINE RIVER     CLOUDY    63  63 100 SE5       29.90F
BRAINERD       CLOUDY    63  60  90 SE8       29.88R
STAPLES        CLOUDY    63  63 100 S8        29.86S
LONG PRAIRIE   CLOUDY    61  59  94 SE3       29.87F FOG
LITTLE FALLS   MOCLDY    63  61  94 SE7       29.87F
LITCHFIELD     PTCLDY    64  64 100 SE3       29.87F FOG
BUFFALO        MOCLDY    63  60  91 E5        29.89F
MAPLE LAKE     PTCLDY    64  64  97 SE3       29.89F
$$
MNZ037-044-045-052-053-310800-
   East Central Minnesota

CITY           SKY/WX    TMP DP  RH WIND       PRES   REMARKS
PRINCETON      CLOUDY    66  63  88 CALM      29.90S
MORA           CLOUDY    61  57  88 CALM      29.93R
CAMBRIDGE      PTCLDY    64  55  72 CALM      29.89R
RUSH CITY      CLOUDY    61  59  94 CALM      29.91S
MOOSE LAKE     CLOUDY    59  57  94 CALM      29.90R
HINCKLEY       CLOUDY    61  59  94 SE5       29.92R
CLOQUET        CLOUDY    59  57  94 CALM      29.92R
MCGREGOR       CLOUDY    61  59  94 SE7       29.92R
$$
MNZ071>073-080-081-089-090-097-098-310800-
   Southwest Minnesota

CITY           SKY/WX    TMP DP  RH WIND       PRES   REMARKS
MONTEVIDEO     CLEAR     59  59 100 S6        29.83F FOG
GRANITE FALLS  CLEAR     58  58 100 E6        29.85F
CANBY          CLOUDY    59  58  98 SE8       29.80F FOG
MARSHALL       CLEAR     61  57  88 SE9       29.81F
REDWOOD FALLS  CLEAR     61  60  97 SE7       29.85F FOG
OLIVIA         CLEAR     61  59  94 SE6       29.85F
PIPESTONE      CLEAR     63  59  88 SE9       29.82F
WINDOM         CLEAR     61  59  94 E3        29.86F FOG
WORTHINGTON    CLEAR     61  59  94 SE6       29.86F
JACKSON        CLEAR     59  55  88 SE5       29.86F
TRACY          CLEAR     60  59  97 CALM      29.84F
SLAYTON        CLEAR     57  57 100 CALM      29.85F
$$
MNZ065>067-074>077-082>085-091>093-310800-
   South Central Minnesota

CITY           SKY/WX    TMP DP  RH WIND       PRES   REMARKS
MANKATO        CLEAR     63  57  82 SE7       29.88S
NEW ULM        CLEAR     63  63 100 E5        29.87S FOG
ST JAMES       CLEAR     61  61 100 SE3       29.88S FOG
FAIRMONT       CLEAR     59  55  88 S3        29.87F
GLENCOE        CLEAR     63  59  88 E3        29.88S
FARIBAULT      CLEAR     66  61  82 E5        29.90R
OWATONNA       CLEAR     63  61  94 SE5       29.90R
WASECA         CLEAR     59  54  82 E6        29.91R FOG
ALBERT LEA     FOG       61  61 100 CALM      29.90R VSB 1/4
$$
MNZ078>079-086>088-094>096-310800-
   Southeast Minnesota

CITY           SKY/WX    TMP DP  RH WIND       PRES   REMARKS
ROCHESTER      CLOUDY    64  62  93 SE8       29.92R FOG
RED WING       MOCLDY    66  63  88 SE7       29.89R
STANTON        CLEAR     63  60  90 CALM      29.89R
DODGE CENTER   CLEAR     63  61  94 SE5       29.91R FOG
WINONA         MOCLDY    63  61  94 CALM      29.91R
AUSTIN         CLEAR     59  57  94 CALM      29.90R FOG
PRESTON        CLOUDY    64  64 100 CALM      29.92R FOG
$$
ABBREVIATIONS USED IN REMARKS
   TC - TEMPERATURES IN CELSIUS
  WCI - WIND CHILL INDEX
   HX - HEAT INDEX
  VSB - VISIBILITY
$$


USA.gov is the U.S. government's official web portal to all federal, state and local government web resources and services.